Aeroporto :
LOGIN :

Iscrizione | Disclaimer

   EN    FR    IT 

 










Sommario :    VFR   VFR Marginale   IFR   IFR Intensivo   IFR Molto Intensivo
Visibilità : 
Base nubi : 
>= 8 km
>= 3000ft
5 / 8 km
1000 / 3000 ft
1500m / 5 km
500 / 1000 ft
800 / 1500m
200 / 500 ft
< 800m
< 200 ft
Simboli :   Temporali  Nebbia  Neve Forte  Precipitazioni Forti  Vento > 20 kt
SIGMETs :   Varie  Temporali  Ghiacco  Turbolenza  Onda orograficha  Ceneri Vulcaniche







- Altitudine del aeroporto : 65 ft
- Codice IATA : PMO


LICJ - Palermo Punta Raisi

ULTIMO METAR :
  • 160820Z 04011KT CAVOK 23/20 Q1015

METARs OBSOLETI :
  • 160750Z 03010KT CAVOK 22/20 Q1015
  • 160720Z 03010KT CAVOK 22/20 Q1015
  • 160650Z 04010KT 7000 FEW005 22/20 Q1015
  • 160620Z 03011KT 6000 SCT005 22/20 Q1015
  • 160550Z 04011KT 7000 SCT005 22/20 Q1015

TAF TAF LICJ
Valido dal 16 a 06 ore il 17 a 06 ore UTC


160500Z 1606/1706 VRB05KT 7000 SCT015
BECMG 1608/1610 02014KT
BECMG 1618/1620 VRB05KT
Nessun NOTAM noto per questo aeroporto.



MetMap, La meteo Aeronautica in un colpo d'occhio ! - Copyright ORBIFLY Dicembre 2007 - Disclaimer

ORBIFLY MET'MAP TEAM :

Programmazione e sviluppo : Alexandra Zaïnal
Concezione e sviluppo : Baudouin d'Aumeries
Co-Programmazione e sviluppo : Marc-Olivier Méhu
Supporto tecnico e logistico : Manuel Goepfert
Aiuto per la traduzione : Arnaldo La Scala

Contatto : metmap@orbifly.com




FONTI E CREDITI :

   NOAA